New Philadelphia, OH

1:36 AM EDT on October 21, 2019 (GMT -0400)
Clever

Weather History for KPHD - September, 2019

Change the Weather History Date:

Tuesday, September 17, 2019

  Actual Average Record
Temperature  
Mean Temperature 71 °F 64 °F  
Max Temperature 84 °F 75 °F 94 °F (1991)
Min Temperature 58 °F 52 °F 36 °F (1966)
Degree Days  
Heating Degree Days 0 3  
Month to date heating degree days 2 28  
Since 1 July heating degree days 6 38  
Cooling Degree Days 6 2  
Month to date cooling degree days 91 51  
Year to date cooling degree days 864 673  
Growing Degree Days 21 (Base 50)    
Moisture  
Dew Point 60 °F    
Average Humidity 74    
Maximum Humidity 97    
Minimum Humidity 43    
Precipitation  
Precipitation 0.00 in 0.10 in 2.22 in (1978)
Month to date precipitation 0.20 2.09  
Year to date precipitation 31.40 29.04  
Sea Level Pressure  
Sea Level Pressure 30.12 in    
Wind  
Wind Speed 4 mph ()    
Max Wind Speed 13 mph    
Max Gust Speed 17 mph    
Visibility 9.4 miles    
Events      
T = Trace of Precipitation, MM = Missing Value Source: Averaged Metar Reports

Daily Weather History Graph

Daily Weather History Graph

Search for Another Location

Airport or City:

Astronomy

Sep. 17, 2019 Rise Set
Actual Time 7:08 AM EDT 7:31 PM EDT
Civil Twilight 6:40 AM EDT 7:58 PM EDT
Nautical Twilight 6:08 AM EDT 8:30 PM EDT
Astronomical Twilight 5:35 AM EDT 9:03 PM EDT
Moon 9:33 PM EDT (9/17) 10:11 AM EDT (9/17)
Length of Visible Light 13h 18m
Length of Day
12h 23m
Waning Gibbous, 89% of the Moon is Illuminated
Sep 17
Waning Gibbous
Sep 21
Last Quarter
Sep 28
New
Oct 5
First Quarter
Oct 13
Full

Hourly Weather History & Observations

Time (EDT) Temp. Heat Index Dew Point Humidity Pressure Visibility Wind Dir Wind Speed Gust Speed Precip Events Conditions
12:53 AM 66.0 °F - 61.0 °F 84% 30.08 in 10.0 mi NNW 3.5 mph - N/A   Clear
1:53 AM 64.0 °F - 61.0 °F 90% 30.09 in 10.0 mi NNW 3.5 mph - N/A   Clear
2:53 AM 61.0 °F - 59.0 °F 93% 30.09 in 7.0 mi Calm Calm - N/A   Clear
3:53 AM 61.0 °F - 59.0 °F 93% 30.08 in 9.0 mi Calm Calm - N/A   Clear
4:08 AM 61.0 °F - 59.0 °F 93% 30.10 in 8.0 mi Calm Calm - N/A   Scattered Clouds
4:17 AM 62.1 °F - 60.1 °F 93% 30.10 in 9.0 mi Variable 3.5 mph - N/A   Mostly Cloudy
4:53 AM 64.0 °F - 61.0 °F 90% 30.09 in 7.0 mi Variable 3.5 mph - N/A   Overcast
5:00 AM 64.0 °F - 61.0 °F 90% 30.11 in 7.0 mi North 4.6 mph - N/A   Overcast
5:53 AM 64.0 °F - 61.0 °F 90% 30.09 in 7.0 mi NNW 3.5 mph - N/A   Overcast
6:53 AM 64.9 °F - 62.1 °F 90% 30.11 in 9.0 mi North 4.6 mph - N/A   Overcast
7:53 AM 66.0 °F - 62.1 °F 87% 30.13 in 9.0 mi Calm Calm - N/A   Overcast
8:53 AM 66.0 °F - 61.0 °F 84% 30.15 in 10.0 mi NE 5.8 mph - N/A   Overcast
9:53 AM 68.0 °F - 62.1 °F 81% 30.16 in 10.0 mi NNE 6.9 mph - N/A   Overcast
10:06 AM 69.1 °F - 62.1 °F 78% 30.17 in 10.0 mi Variable 4.6 mph - N/A   Overcast
10:39 AM 71.1 °F - 62.1 °F 73% 30.18 in 10.0 mi Variable 5.8 mph - N/A   Overcast
10:53 AM 72.0 °F - 62.1 °F 71% 30.16 in 10.0 mi North 8.1 mph - N/A   Overcast
11:53 AM 75.9 °F - 62.1 °F 62% 30.15 in 10.0 mi Variable 5.8 mph - N/A   Mostly Cloudy
12:10 PM 75.9 °F - 62.1 °F 62% 30.17 in 10.0 mi NE 6.9 mph - N/A   Scattered Clouds
12:53 PM 78.1 °F - 61.0 °F 56% 30.15 in 10.0 mi NE 8.1 mph - N/A   Scattered Clouds
1:53 PM 79.0 °F - 60.1 °F 52% 30.13 in 10.0 mi Variable 6.9 mph - N/A   Partly Cloudy
2:53 PM 82.0 °F 82.0 °F 57.9 °F 44% 30.12 in 10.0 mi Variable 6.9 mph - N/A   Scattered Clouds
3:53 PM 79.0 °F - 57.9 °F 48% 30.11 in 10.0 mi NNE 8.1 mph - N/A   Partly Cloudy
4:53 PM 79.0 °F - 57.0 °F 47% 30.09 in 10.0 mi NE 5.8 mph - N/A   Partly Cloudy
5:53 PM 80.1 °F 80.7 °F 59.0 °F 48% 30.10 in 10.0 mi North 5.8 mph - N/A   Clear
6:53 PM 77.0 °F - 57.9 °F 52% 30.10 in 10.0 mi North 6.9 mph - N/A   Clear
7:53 PM 72.0 °F - 59.0 °F 64% 30.10 in 10.0 mi North 4.6 mph - N/A   Clear
8:53 PM 69.1 °F - 59.0 °F 70% 30.12 in 10.0 mi NNE 3.5 mph - N/A   Clear
9:53 PM 68.0 °F - 57.9 °F 70% 30.13 in 10.0 mi NE 3.5 mph - N/A   Clear
10:53 PM 66.9 °F - 57.0 °F 70% 30.15 in 10.0 mi NE 5.8 mph - N/A   Clear
11:53 PM 61.0 °F - 55.9 °F 83% 30.15 in 10.0 mi Calm Calm - N/A   Clear